Theta_e
305 306 306 306 305 305 305 304 304 303 304 305 303 306 307 313 302 300 312 315 312 313 314 320 324 328 327 325 327 327 330 329 330 330 329 329 330 332 333 337 340 341 341 344 345 346 347 348 348 349 349 351 353 355 354 356 356 356 358 356 353 349 346 344 342 341 342 343 342 343 342 343 342 340 337 337 339 339 339 338 338 338 339 339 340 340 341
304 305 305 306 304 304 304 304 304 305 304 304 305 306 308 309 310 310 313 316 313 313 315 319 323 328 327 330 330 328 326 325 330 329 330 329 329 330 332 335 337 341 342 344 345 346 347 347 348 348 349 351 351 351 352 355 356 356 357 355 352 349 346 345 343 342 343 344 344 342 341 339 338 337 336 337 339 339 339 339 340 340 340 340 339 339 340
302 304 305 304 303 303 302 304 305 305 305 305 305 306 307 310 309 312 311 314 314 318 325 325 329 330 324 323 321 322 328 330 328 329 328 330 329 331 334 337 338 341 343 344 345 345 346 347 348 348 350 350 351 349 351 352 355 356 356 354 351 348 345 344 343 342 343 343 340 337 336 336 336 336 336 339 340 340 340 340 339 340 340 338 337 338 339
301 303 303 303 303 303 302 303 304 303 302 302 303 304 309 306 307 310 309 310 310 317 321 319 322 322 324 323 327 329 329 327 330 329 329 330 332 332 333 336 338 340 341 343 343 344 345 347 349 349 350 350 351 349 351 352 354 355 354 353 350 347 344 344 342 342 343 343 341 339 338 337 338 339 339 340 341 340 340 340 340 339 338 338 338 338 337
301 305 303 302 302 301 298 300 303 305 304 305 305 306 311 309 310 308 306 307 315 316 321 319 320 319 322 324 325 328 330 331 330 331 331 331 332 333 336 336 337 338 339 341 344 345 346 346 347 349 351 350 350 352 353 355 355 353 352 350 348 346 344 343 343 343 344 343 342 343 342 342 342 341 341 340 341 340 340 342 341 337 336 336 336 337 337
302 304 301 301 298 292 295 307 308 307 305 305 304 303 305 309 312 310 313 315 317 320 321 317 320 321 324 324 328 333 334 333 332 331 333 333 334 334 334 336 336 339 342 343 344 346 348 348 347 349 351 351 353 354 354 355 353 352 351 349 347 345 343 343 344 344 344 343 343 343 342 342 342 341 340 340 341 341 342 343 341 339 337 336 337 338 338
301 303 301 298 293 296 310 316 314 309 308 308 306 307 308 309 312 314 313 316 320 322 320 322 324 326 328 329 327 324 325 331 332 333 333 335 334 333 335 337 337 341 343 344 345 346 344 344 348 349 350 352 352 352 353 352 353 351 349 347 346 344 343 343 343 343 344 343 342 340 338 339 340 340 340 341 342 343 343 342 341 340 339 339 339 339 339
304 301 300 292 295 307 311 312 314 312 309 309 308 306 311 314 311 314 313 316 319 324 322 321 323 322 322 326 328 328 330 328 329 329 330 332 333 334 336 339 341 342 341 342 343 345 347 346 346 347 349 350 349 351 352 351 351 350 348 347 346 344 342 342 342 344 344 343 341 339 337 337 338 338 339 340 341 344 344 343 342 341 340 339 339 339 340
299 301 299 299 309 306 309 309 312 311 310 306 305 302 307 316 317 316 315 317 319 320 322 322 322 323 320 321 326 324 324 329 331 330 332 332 335 339 340 340 342 345 345 345 346 348 347 348 349 348 350 350 351 351 350 350 351 348 347 346 345 344 343 342 343 343 343 341 340 339 338 338 339 339 340 341 343 344 342 342 340 339 339 339 340 339 339
304 300 298 300 299 296 305 312 315 317 315 316 315 313 312 317 319 319 319 319 321 322 321 320 321 324 319 316 320 325 324 326 329 331 333 334 336 338 339 344 341 344 346 348 350 348 349 350 351 352 351 351 352 350 349 350 349 347 346 345 346 345 344 344 344 343 343 341 340 338 337 336 337 339 341 343 343 344 342 341 340 340 340 340 341 341 339
303 301 297 297 296 301 313 313 314 316 317 316 316 310 305 318 319 319 319 319 320 321 321 322 323 318 313 315 324 323 326 327 329 331 333 334 337 339 341 342 345 346 348 348 347 350 351 350 351 353 353 352 350 350 350 348 348 347 346 347 346 345 345 345 345 344 343 342 339 337 336 336 337 339 340 342 343 343 341 342 342 343 341 341 340 342 341
304 302 299 297 303 303 311 313 315 316 318 315 312 300 302 319 317 319 319 319 320 320 323 322 321 318 314 319 322 323 325 328 331 335 336 338 340 343 346 347 350 352 351 349 349 349 351 351 350 352 352 351 350 350 349 349 348 347 347 348 348 348 347 346 346 344 343 343 341 340 339 338 339 341 343 343 342 341 341 341 341 342 342 341 340 341 341
303 302 302 304 307 314 312 313 315 316 317 313 304 298 311 320 320 320 320 320 320 323 322 321 319 323 327 328 327 330 336 335 337 339 339 340 342 342 344 346 349 351 353 354 352 351 352 350 349 351 351 351 350 350 350 349 348 349 351 351 349 348 347 346 345 344 343 341 339 339 339 338 340 341 342 341 341 342 341 341 342 342 341 341 340 340 341
302 304 300 300 306 310 312 316 316 317 310 302 303 315 317 320 319 319 320 319 320 322 325 327 328 329 331 332 335 339 340 341 342 342 342 343 345 346 347 348 348 347 346 346 345 344 347 348 349 351 352 351 349 348 348 348 350 352 352 351 349 348 346 345 344 343 342 341 340 338 339 339 339 340 342 342 342 342 341 341 340 339 340 340 340 339 341
304 304 301 297 293 311 316 314 317 318 310 313 315 320 322 321 323 324 325 323 325 331 331 333 334 335 337 338 339 340 340 341 342 344 345 345 344 344 345 344 345 345 344 343 342 342 343 345 347 349 351 349 347 346 346 348 349 349 349 349 348 347 346 344 343 343 342 342 340 340 340 340 339 339 342 342 342 342 340 339 338 337 338 338 338 338 340
303 302 298 297 309 314 317 314 308 314 315 318 321 323 321 324 326 326 327 330 332 334 334 333 335 336 336 337 339 339 339 340 342 343 344 344 343 341 341 342 343 344 343 342 340 341 341 342 344 347 349 347 346 345 346 346 345 345 346 347 347 345 344 344 343 343 342 340 341 342 341 341 341 341 341 342 342 341 339 336 336 337 338 338 338 338 338
308 306 313 316 318 317 319 317 316 317 319 323 325 325 324 323 323 328 326 326 329 332 333 333 333 332 335 335 336 335 336 338 339 339 340 343 344 345 345 345 346 347 346 344 341 340 340 341 342 344 347 347 344 344 343 342 343 343 343 344 344 343 343 343 343 342 342 341 341 343 343 341 340 340 340 339 337 338 338 338 336 336 338 338 337 337 336
313 315 316 316 318 319 318 319 319 316 317 319 321 323 324 324 326 328 327 326 325 327 330 328 329 329 331 331 333 335 336 337 339 340 341 343 345 345 345 345 345 345 344 344 343 339 338 338 338 339 342 345 344 343 341 342 342 342 342 342 341 340 341 342 342 342 342 341 341 342 341 341 340 341 338 338 336 337 337 337 338 337 338 336 334 334 334
306 301 313 314 315 316 316 316 319 318 317 316 317 319 320 321 323 325 327 329 329 330 330 329 329 328 329 329 330 332 335 337 339 340 340 340 341 343 342 343 344 345 346 344 343 342 338 338 339 339 340 341 342 341 340 340 341 342 342 341 340 339 340 340 341 341 340 339 340 342 340 340 337 335 337 338 335 336 336 336 335 335 334 333 332 332 332
309 311 314 316 318 319 318 318 318 316 316 316 317 318 319 320 321 322 323 325 325 328 328 331 330 330 332 331 332 331 333 335 336 337 338 340 340 340 342 343 345 346 347 347 345 344 341 339 339 339 339 339 338 337 337 338 339 340 340 340 340 338 338 338 337 338 338 338 338 339 339 338 338 338 338 337 336 335 335 334 333 332 332 333 331 331 330
311 313 316 316 319 318 317 318 318 317 316 315 317 318 317 318 319 320 322 324 326 328 329 331 331 331 332 333 332 330 333 334 334 335 336 338 338 340 342 343 345 347 347 346 345 343 341 339 338 337 335 334 335 337 336 337 339 338 337 338 338 337 337 337 337 338 338 338 338 337 335 331 325 325 332 335 335 331 328 332 335 334 332 329 330 331 335
307 308 310 316 310 310 316 316 315 314 317 315 314 315 315 316 317 318 318 318 320 322 326 332 332 332 332 334 335 332 334 335 336 337 337 337 338 339 339 340 341 342 342 344 342 340 339 338 338 336 334 334 335 335 336 337 338 337 336 336 336 335 336 336 336 336 336 336 338 335 332 327 319 312 302 297 307 325 318 308 302 299 302 329 333 332 331
306 309 314 311 312 312 313 314 316 316 315 315 314 312 313 313 315 316 317 316 316 316 317 321 326 330 332 334 334 332 332 333 334 335 337 337 337 337 339 339 339 340 340 341 341 340 339 338 337 336 336 336 335 335 336 337 336 338 338 337 336 335 335 335 335 336 338 337 335 334 332 328 323 318 313 307 294 296 303 305 298 293 293 295 298 304 324
307 309 310 311 310 307 310 314 315 315 318 318 315 314 315 317 316 316 316 316 315 316 317 317 319 320 321 325 328 329 331 334 336 336 336 336 336 336 337 338 338 339 339 339 340 339 339 338 337 337 335 335 335 335 337 337 338 339 338 337 335 336 335 334 333 334 335 332 330 329 329 327 323 319 317 312 308 294 293 296 294 292 292 292 293 296 298
307 312 312 313 312 312 313 315 315 315 317 317 315 315 314 315 316 317 317 317 319 317 317 317 318 320 320 320 321 323 323 324 328 332 334 335 335 336 335 336 337 338 339 338 339 339 339 338 337 337 337 336 336 334 337 338 338 338 339 336 332 330 329 331 334 335 333 330 328 331 329 327 325 325 322 320 318 313 304 293 292 292 291 291 291 292 292
315 315 316 318 318 317 317 315 315 316 316 315 314 315 319 320 317 317 317 318 317 318 318 317 317 319 322 322 322 322 322 321 323 326 328 331 334 335 335 335 336 337 338 338 338 338 339 338 338 337 336 335 336 336 336 335 334 334 333 331 329 327 327 327 331 334 335 335 333 332 328 327 327 327 329 332 332 322 317 313 308 298 292 291 291 292 289
317 319 317 315 313 314 316 313 313 317 317 317 316 315 316 318 319 318 318 318 317 317 317 318 319 320 321 321 323 322 322 323 324 323 324 325 328 332 334 335 335 336 336 336 337 337 336 337 336 336 334 333 335 336 334 333 333 332 332 330 329 329 329 331 332 335 336 337 335 332 329 329 328 329 330 331 332 329 328 326 325 323 320 315 299 294 303
314 316 316 311 310 311 312 314 315 317 317 318 317 316 317 317 317 316 317 317 318 318 318 319 318 319 319 320 321 320 320 322 322 322 322 322 324 330 335 336 335 335 334 334 335 336 337 336 335 334 332 333 334 334 332 332 334 334 333 332 331 329 330 331 334 338 338 339 336 335 334 333 332 331 329 329 328 328 327 327 326 323 320 318 314 299 294
311 313 314 314 314 314 315 316 315 315 315 315 317 319 318 315 314 315 316 316 318 318 317 318 320 321 319 319 320 319 319 319 321 321 322 324 325 327 333 335 335 334 333 333 333 335 336 335 333 332 331 332 332 332 330 329 329 329 329 329 330 331 333 336 337 337 338 338 337 336 330 330 332 331 330 329 329 327 327 326 325 324 321 317 313 310 308
311 313 312 311 313 313 311 309 310 311 312 314 314 315 317 316 314 314 315 317 317 316 318 320 320 319 320 319 320 319 318 318 320 322 323 322 324 327 331 335 335 335 334 333 333 334 335 333 331 330 331 331 330 332 331 334 332 331 331 331 332 333 336 337 337 338 337 336 332 327 330 331 332 331 330 328 327 325 324 323 323 322 320 318 316 317 316
310 310 310 309 310 311 310 309 311 312 313 314 314 314 314 315 314 314 315 317 318 317 319 319 319 320 320 319 321 322 322 322 323 323 324 325 325 325 326 329 330 330 332 334 335 334 335 333 330 331 334 332 332 334 334 333 333 333 332 333 335 327 325 326 330 336 335 333 331 332 331 330 329 328 327 326 325 323 323 323 322 322 321 319 319 321 321
308 308 307 308 309 309 308 310 311 312 313 314 313 313 313 314 313 313 315 315 316 318 318 319 319 319 320 321 322 323 324 324 324 324 324 325 326 326 326 326 329 330 334 336 337 335 335 334 331 334 336 336 336 336 334 333 333 334 333 333 333 332 327 325 331 332 335 334 332 331 329 327 327 327 326 326 325 323 322 322 321 321 321 321 320 322 323
308 306 307 308 310 311 311 312 311 311 312 312 313 314 315 316 316 316 316 317 317 318 318 318 319 320 321 322 323 323 323 324 324 324 324 326 327 327 326 327 329 330 332 334 336 337 336 333 333 334 334 334 335 335 333 335 336 335 335 333 332 332 330 327 327 331 332 331 331 330 329 328 327 326 325 325 325 324 323 322 322 321 320 321 322 322 321
309 309 309 310 311 311 311 311 312 312 313 314 315 316 316 316 317 317 318 318 318 317 317 317 319 320 321 321 322 322 322 323 321 322 323 325 326 325 324 324 327 329 330 331 333 333 334 334 336 333 333 333 333 332 332 332 332 333 334 333 332 330 329 329 329 331 330 329 329 329 329 328 327 325 325 324 323 323 322 321 320 320 320 320 321 321 309
312 311 312 312 313 313 314 313 314 314 314 314 314 316 317 317 317 317 318 317 316 316 318 319 319 320 320 320 319 319 319 319 319 319 321 322 322 321 321 323 326 328 328 327 327 328 329 330 333 333 332 332 332 331 331 331 332 332 332 331 331 331 331 330 330 329 328 328 328 328 327 326 325 324 323 323 322 321 321 321 321 320 320 319 319 319 315
313 313 313 314 315 315 315 315 315 316 316 315 315 315 316 317 317 316 316 316 317 318 318 318 319 318 317 317 317 317 317 318 319 320 321 320 320 320 321 323 324 325 325 326 325 326 328 330 327 328 330 330 330 331 331 330 331 330 333 333 332 331 331 330 329 329 328 327 326 326 325 325 324 323 323 322 321 321 321 321 320 320 319 318 318 318 318
315 314 314 315 316 317 316 316 316 316 316 316 316 316 316 317 316 317 317 317 317 317 318 319 318 317 316 317 317 318 319 320 320 321 321 321 322 322 321 321 322 322 323 325 325 326 328 330 329 328 330 331 330 330 330 328 330 331 331 331 330 328 327 327 328 328 326 327 324 325 323 322 322 323 322 321 321 321 320 320 320 319 319 318 318 318 317
314 315 315 316 316 316 317 317 317 318 317 316 317 317 317 317 318 317 317 317 318 319 319 318 317 317 318 318 318 317 319 319 319 320 321 322 322 322 322 321 321 322 322 322 325 327 330 330 327 328 330 331 332 331 330 328 328 328 328 327 326 327 328 326 326 326 325 324 324 323 322 321 321 321 321 321 321 320 319 319 319 319 318 318 318 318 318
314 315 316 316 317 316 317 317 318 318 316 316 316 316 317 318 318 317 317 317 318 319 318 318 318 318 318 318 317 318 319 319 319 319 320 321 322 321 319 319 320 321 323 324 325 328 328 329 331 330 331 330 330 331 330 328 327 327 327 328 328 326 326 327 325 323 323 324 322 321 321 320 320 319 319 319 319 319 319 318 318 318 318 317 317 317 318
313 314 314 314 314 315 315 316 316 316 316 317 316 316 317 317 317 317 317 317 318 319 319 319 319 317 318 318 318 318 319 319 319 319 320 321 322 321 322 322 322 324 325 323 327 329 326 325 327 329 329 329 329 329 330 327 326 328 328 326 326 325 324 324 324 322 322 321 321 320 320 319 318 318 317 317 318 318 317 318 317 317 317 317 316 316 316
314 314 315 315 315 315 315 315 315 316 317 317 317 318 318 318 318 317 317 316 318 319 319 319 319 318 318 319 319 318 320 320 319 319 320 321 321 320 319 318 323 324 324 325 327 327 327 323 325 325 326 328 330 330 329 326 327 326 326 325 324 324 323 323 321 320 319 319 318 317 317 317 316 316 316 316 316 316 317 317 317 317 316 316 316 316 315
314 315 315 315 315 315 316 316 316 315 316 318 319 319 319 319 318 316 316 317 318 319 320 320 320 320 319 320 321 321 321 322 322 322 323 321 320 320 318 319 324 326 325 326 328 327 326 324 325 325 327 328 328 328 327 326 326 325 324 324 323 323 322 320 320 319 320 319 318 318 317 317 317 316 316 317 316 316 316 317 316 316 316 316 316 316 315
316 315 315 315 316 316 316 316 316 315 316 316 317 318 319 320 320 320 319 320 319 319 320 321 320 320 320 320 320 320 320 322 322 323 322 322 322 322 321 321 324 325 325 326 327 325 324 323 323 324 324 324 325 327 325 325 325 324 323 323 322 321 321 320 320 320 320 320 319 319 319 318 317 317 316 316 316 316 316 316 316 316 316 316 316 316 316
315 315 316 316 316 316 317 317 317 316 314 315 317 318 319 319 320 319 319 319 319 320 320 320 320 320 320 320 320 320 320 320 320 321 320 320 321 323 324 323 324 324 324 325 325 324 323 322 321 322 321 321 324 323 323 323 323 323 322 322 321 321 320 320 319 319 319 319 318 318 318 318 317 317 316 315 315 315 315 314 314 314 313 313 313 313 313
315 316 317 317 319 318 317 316 316 315 316 318 318 318 318 318 319 320 320 320 319 319 320 320 320 320 320 320 321 320 320 321 321 320 317 317 316 317 322 324 325 323 324 326 324 324 324 324 321 320 321 320 321 319 320 320 320 320 321 320 320 319 319 318 318 318 318 318 317 317 316 316 315 314 313 313 312 311 311 311 312 311 311 310 310 311 312
315 316 316 317 317 317 317 317 318 318 317 317 314 316 318 319 319 320 320 320 320 320 319 319 320 320 320 319 320 321 323 321 321 321 321 320 317 319 323 324 325 326 324 324 326 325 324 322 319 319 321 324 318 315 316 317 317 316 317 317 317 317 317 316 317 315 315 314 313 313 312 312 311 311 311 311 311 310 310 310 309 310 310 309 309 309 310
314 316 316 317 317 318 318 319 319 319 317 316 314 314 316 318 319 320 319 319 319 320 320 320 320 321 321 321 320 319 318 318 320 322 322 322 323 322 322 324 325 325 326 327 325 326 324 324 322 320 320 323 320 318 316 316 315 315 314 314 314 313 314 314 313 313 313 313 312 312 313 311 311 311 311 311 309 309 309 309 309 308 308 308 308 309 310
315 315 316 316 318 319 319 319 318 317 317 316 315 317 317 318 320 321 320 319 320 321 321 321 321 321 321 321 322 321 321 320 315 318 321 321 323 324 323 322 323 325 325 324 323 323 320 319 320 320 320 322 323 320 318 316 314 314 314 314 313 312 312 312 312 312 311 312 312 311 310 310 311 310 309 309 310 309 308 308 307 307 307 307 307 307 308
315 316 316 316 317 318 318 318 317 317 318 318 318 319 318 318 321 321 320 321 320 321 320 319 321 321 321 321 320 321 323 323 321 318 322 323 322 322 323 323 321 323 324 325 323 323 323 318 317 318 319 322 323 321 319 317 315 314 313 313 313 312 312 311 311 312 311 311 311 310 311 310 310 310 309 308 308 308 308 307 308 307 307 306 306 307 308
317 317 317 316 316 315 315 315 315 316 318 318 319 320 319 319 318 320 321 319 319 320 321 320 318 321 320 321 320 321 322 322 324 325 324 324 324 324 323 323 323 321 321 323 323 322 322 320 318 319 320 322 322 322 320 319 317 315 314 313 313 313 312 311 309 309 312 311 310 310 310 310 310 310 309 308 308 307 307 307 307 306 305 306 306 306 306
317 316 316 316 317 318 318 317 317 318 318 318 319 319 319 318 317 318 320 318 318 316 313 314 318 319 318 317 318 319 321 321 320 321 322 324 325 323 323 323 323 322 322 321 322 322 322 322 322 321 321 321 321 320 320 319 318 316 315 315 314 314 313 310 310 311 311 311 310 311 311 311 310 311 309 308 307 307 307 307 306 306 307 306 306 307 306
315 315 316 315 316 318 319 319 320 320 319 319 318 317 317 317 317 316 317 317 314 312 313 313 313 316 317 316 316 317 318 319 321 323 323 322 322 321 322 323 322 322 323 322 322 322 321 321 320 320 320 320 321 320 320 317 317 317 316 315 315 314 313 312 311 311 312 311 311 310 310 310 310 309 309 308 308 308 307 307 307 307 306 307 307 307 307
Wind_Speed
17 18 18 12 11 16 15 17 16 17 17 16 18 15 11 12 12 13 8 10 11 10 12 11 13 12 13 13 15 14 4 1 4 8 11 12 12 11 13 14 13 13 14 13 14 14 13 13 14 14 12 12 11 10 12 12 13 13 11 12 13 15 15 13 12 14 14 14 12 11 13 11 9 10 12 11 9 8 7 7 7 9 8 8 6 7 7
15 16 16 10 13 10 12 16 18 18 19 19 20 18 15 15 11 12 11 15 16 14 13 12 13 13 11 8 3 1 6 11 9 11 11 13 13 15 16 15 15 14 14 13 14 14 13 14 14 14 12 12 13 13 14 13 12 11 11 13 14 14 13 13 14 15 12 7 7 8 8 11 14 15 14 14 11 10 9 9 8 7 7 6 7 8 8
12 15 14 11 14 15 16 14 14 16 17 18 20 19 16 13 13 6 1 7 9 8 6 7 3 3 1 1 7 11 10 8 10 12 12 12 14 14 12 12 13 13 13 13 13 13 14 14 15 14 13 12 12 13 13 13 13 13 13 13 13 13 14 14 14 13 11 10 12 13 16 15 15 16 14 10 9 9 8 8 8 7 7 8 9 9 9
7 7 10 13 14 16 18 20 17 11 10 12 8 8 5 8 9 10 8 5 6 7 9 10 8 6 6 9 10 9 8 11 11 12 13 13 14 13 12 11 11 12 13 14 14 15 16 15 14 13 11 11 11 13 12 12 12 11 12 12 12 13 13 13 14 14 13 15 17 19 16 15 14 11 9 8 8 8 8 9 7 6 8 8 7 7 7
4 1 3 8 11 8 11 15 16 16 13 10 11 11 10 14 14 11 10 10 8 13 9 9 10 11 11 10 9 8 8 6 10 12 13 13 13 12 12 13 13 14 16 16 16 15 14 13 13 14 12 11 12 11 10 10 10 11 12 12 11 12 15 17 16 15 15 16 16 14 12 12 9 8 9 9 10 9 10 10 7 7 7 7 8 7 7
3 3 3 5 4 10 10 9 17 18 18 17 15 12 12 13 11 8 10 10 12 10 5 10 12 12 12 14 14 9 6 9 12 13 11 10 10 9 11 13 15 14 11 9 11 12 11 12 11 10 11 9 8 9 10 10 11 11 12 11 12 14 15 17 17 15 15 15 14 15 14 13 10 10 11 12 11 10 9 7 8 8 8 10 8 8 8
4 2 2 3 8 9 2 3 1 12 19 19 20 18 19 17 15 10 5 7 7 10 12 12 11 9 4 4 5 6 7 5 7 8 7 8 11 13 13 12 11 8 8 8 8 7 7 9 9 9 8 8 8 9 10 12 12 12 11 13 13 14 17 17 18 18 16 14 13 16 14 10 7 8 10 10 10 9 9 9 9 9 8 8 7 7 9
1 2 2 3 2 4 7 5 2 2 2 5 10 14 7 5 12 14 14 12 12 7 6 6 2 2 2 0 2 2 3 7 7 7 8 8 8 11 12 14 12 12 12 11 11 9 8 8 8 9 10 10 11 11 11 12 12 12 12 13 13 13 16 16 19 18 17 15 15 11 10 11 10 10 9 9 9 7 7 7 6 5 6 7 8 8 8
4 1 3 7 6 8 3 3 1 1 2 8 13 11 13 14 11 12 13 14 9 4 6 5 3 4 4 5 2 2 1 3 6 8 9 11 10 4 3 7 9 9 9 9 10 10 10 10 10 10 10 11 11 11 12 12 12 12 13 13 13 15 15 19 18 18 16 16 13 12 13 12 13 13 13 11 9 6 7 7 7 7 8 7 7 7 8
1 5 7 5 5 7 4 4 3 4 7 9 9 5 5 4 8 9 10 12 9 7 5 6 7 8 6 6 5 2 1 3 4 3 6 7 8 9 9 8 10 11 10 10 10 10 11 9 9 9 10 11 11 11 11 11 13 13 13 14 14 14 15 16 17 18 15 13 11 14 13 13 14 13 12 9 9 7 9 8 8 8 7 6 7 8 9
3 4 6 5 6 5 5 6 8 8 10 10 8 3 10 6 10 9 11 10 8 9 9 9 10 8 7 8 3 2 3 4 6 7 7 10 11 12 12 13 12 11 9 9 10 9 10 10 8 9 10 12 11 11 11 12 12 13 13 13 13 14 14 16 18 18 14 12 13 14 13 14 13 12 11 10 8 7 8 7 7 5 5 7 8 8 9
2 1 3 7 3 3 6 10 12 13 11 7 4 9 7 8 8 8 10 10 9 9 8 10 10 10 10 5 4 3 4 5 6 8 10 10 10 9 8 8 8 10 11 11 9 9 9 9 9 10 11 11 11 11 11 11 12 12 13 13 12 11 12 14 14 16 14 13 13 12 13 12 12 11 8 7 8 8 7 6 5 5 5 6 8 8 7
2 4 3 3 5 2 9 13 17 15 7 4 7 10 2 4 2 4 7 7 7 7 9 10 8 0 4 7 8 7 6 9 8 7 9 10 11 12 11 10 10 9 8 7 9 9 8 8 8 9 9 9 9 8 9 9 12 12 9 9 10 10 12 15 16 16 12 13 12 12 12 12 11 10 9 9 8 7 6 4 4 5 7 8 9 9 8
6 2 5 5 5 2 6 13 15 9 2 7 9 3 4 6 4 1 5 7 6 6 4 4 7 6 7 10 9 9 6 7 9 10 11 12 12 11 11 10 9 9 10 11 11 10 7 6 6 7 8 8 8 8 8 10 9 6 7 8 9 10 14 14 15 14 14 12 10 9 9 9 10 10 8 7 6 6 5 5 5 6 6 7 8 7 6
1 2 4 3 4 3 11 16 5 7 5 5 5 7 6 6 4 4 7 9 8 9 12 12 12 12 11 11 12 12 11 10 9 7 8 11 11 10 10 10 8 10 11 10 10 9 6 6 5 6 7 8 7 7 7 6 4 5 6 7 8 10 12 13 14 16 16 14 11 8 10 13 12 10 8 8 7 6 5 3 4 6 7 6 6 6 6
4 1 1 1 4 6 9 9 3 7 6 10 10 8 5 7 5 6 9 9 10 13 15 17 15 15 15 11 10 12 11 11 10 10 11 12 12 12 11 10 9 11 12 10 9 8 6 5 5 5 7 7 6 7 6 4 5 6 7 8 9 11 12 13 13 13 14 15 12 10 12 11 10 9 9 7 6 5 5 5 5 5 5 5 5 6 6
6 4 3 1 3 7 8 5 6 7 10 7 8 7 5 6 7 6 7 9 9 12 16 16 16 15 13 13 11 13 9 11 12 11 10 10 11 11 11 11 10 10 10 10 9 9 6 6 4 3 2 5 7 7 5 5 6 6 7 8 9 11 12 12 12 12 13 12 12 10 11 10 8 7 6 5 5 4 6 5 5 5 5 4 5 5 7
2 3 2 5 3 3 9 7 6 8 10 11 10 8 6 8 6 7 8 8 9 8 6 14 11 12 12 13 12 12 10 11 11 11 11 10 11 11 11 10 9 9 9 10 10 10 8 6 5 3 3 3 6 6 6 6 6 6 7 8 9 11 11 11 11 11 12 12 12 12 10 7 7 3 2 4 6 5 4 4 5 6 5 5 6 6 6
7 4 6 8 5 2 6 8 10 8 10 10 10 9 8 7 9 10 11 9 10 9 10 12 12 12 11 13 11 10 10 11 11 12 12 10 9 9 10 7 6 7 8 7 8 8 8 5 4 4 5 4 4 5 6 6 6 7 7 8 8 9 10 10 10 10 12 10 9 8 10 7 7 7 7 2 0 2 3 3 5 5 3 4 4 5 7
3 1 10 8 7 5 5 5 7 9 11 11 10 8 7 8 11 12 12 12 13 12 12 11 12 11 10 11 10 10 9 9 10 10 10 10 10 9 8 7 5 6 8 7 7 7 6 4 4 4 4 4 6 7 7 7 7 7 7 8 8 9 10 9 9 10 10 11 10 8 8 7 6 7 6 7 8 7 7 6 5 5 6 7 8 8 7
2 5 2 7 7 5 7 8 9 8 7 7 8 9 8 10 13 14 15 15 13 13 12 12 12 13 12 11 11 12 9 10 10 10 10 10 9 9 10 9 8 7 6 7 6 6 4 3 3 3 4 4 5 7 7 8 8 8 8 8 7 8 9 8 8 7 8 8 8 8 7 6 4 3 2 7 7 5 3 2 4 4 6 4 3 4 3
5 6 5 3 9 5 4 9 8 9 8 6 5 7 8 11 11 11 15 15 15 15 14 12 12 13 10 12 11 13 11 10 10 9 9 8 9 8 7 6 6 6 6 4 4 4 3 3 4 4 5 5 4 5 5 7 8 8 8 7 7 7 7 6 7 7 7 8 6 8 8 8 7 6 9 10 7 4 4 4 7 7 5 3 3 3 3
1 5 4 5 4 10 6 6 9 9 8 6 7 8 8 10 11 10 13 15 15 15 14 13 14 12 11 11 11 13 11 10 9 8 8 7 6 6 5 5 5 4 3 2 3 4 4 4 4 5 5 5 4 4 5 6 7 7 8 7 6 6 6 7 5 5 4 5 6 6 6 9 7 8 6 8 14 13 9 5 4 4 3 1 2 4 3
7 5 9 9 8 9 7 8 9 6 3 5 9 9 11 11 10 10 11 11 13 11 12 14 12 11 11 10 11 12 11 11 9 8 6 6 5 5 4 3 3 3 3 4 4 5 4 4 4 5 5 5 5 5 6 6 6 7 7 7 7 6 7 7 6 4 4 4 2 3 3 4 5 6 7 6 5 8 6 5 5 5 4 2 1 1 3
5 3 8 11 13 12 9 9 8 6 5 4 7 10 9 9 11 12 12 11 12 14 13 12 11 10 10 11 11 11 11 11 10 8 7 6 5 4 3 3 2 2 2 3 3 4 4 5 6 6 6 5 5 5 5 5 6 7 7 9 10 9 7 4 4 6 7 8 7 6 6 7 7 6 7 7 7 5 5 7 5 6 5 4 4 3 4
4 6 8 8 10 8 5 8 12 10 8 8 8 9 10 11 11 13 13 11 11 11 11 11 12 10 10 10 9 8 10 10 8 7 8 8 7 6 6 5 3 1 0 2 3 4 5 6 5 5 5 5 5 5 5 6 6 8 9 10 11 10 11 10 6 5 6 6 6 6 6 6 5 6 6 5 6 8 7 6 4 4 5 6 6 7 7
8 6 3 9 12 12 11 9 6 5 7 8 8 8 6 6 9 9 9 10 10 10 10 9 8 7 8 8 9 10 10 9 11 11 9 10 9 7 5 3 3 2 1 1 1 2 3 3 4 4 4 5 5 5 6 7 8 8 9 9 7 8 13 9 6 6 5 6 6 6 6 6 5 4 4 4 4 6 6 6 7 7 6 4 3 5 4
9 10 8 9 7 8 8 8 6 6 8 8 8 7 5 5 9 11 12 10 9 9 10 10 10 10 10 9 10 10 11 12 10 9 9 8 7 5 4 3 2 1 1 0 0 1 2 3 3 4 5 6 6 6 6 5 4 5 6 6 6 7 7 6 4 4 5 5 6 6 6 6 6 6 6 6 5 4 4 5 5 6 5 4 4 4 7
8 8 8 9 9 7 7 8 9 9 8 8 8 6 8 11 11 10 9 7 8 10 11 11 10 10 9 8 8 9 8 8 8 8 6 5 5 5 4 3 2 2 2 1 1 1 2 3 4 4 5 6 6 6 5 4 3 3 3 5 5 6 6 5 3 3 4 5 5 5 5 6 6 6 6 5 4 4 4 4 5 4 5 5 5 3 3
6 4 6 7 5 7 7 5 3 4 5 6 7 7 7 7 7 5 7 9 9 10 7 7 8 8 8 7 7 6 6 6 5 4 4 5 6 6 6 4 2 2 1 1 1 2 3 4 5 5 5 5 4 3 2 2 2 3 4 4 4 4 4 4 4 4 5 5 6 8 6 6 5 5 5 5 5 4 5 5 4 5 5 5 4 4 5
5 5 4 3 2 2 2 1 0 3 3 4 3 2 2 3 5 7 8 8 8 8 7 6 6 6 7 6 5 5 5 4 4 4 4 4 5 6 7 6 4 3 3 2 2 3 4 4 4 4 5 5 5 4 3 3 3 3 3 2 2 4 6 7 5 5 5 6 6 5 5 5 5 5 5 5 5 4 4 5 5 4 4 4 5 4 4
3 3 1 2 3 3 3 3 3 5 4 2 2 4 5 7 8 8 7 7 7 6 6 7 7 6 5 5 5 4 4 4 4 4 4 5 5 6 6 5 4 4 4 4 3 4 4 4 5 4 5 4 4 3 3 3 3 3 3 3 3 4 4 6 5 5 5 5 5 5 5 5 5 4 5 4 5 5 5 5 5 4 4 5 5 5 4
5 6 4 4 5 4 4 2 3 5 6 6 4 4 5 6 6 7 6 6 6 7 7 7 7 6 6 5 5 5 4 4 3 4 5 6 6 6 6 5 4 4 4 4 3 3 4 5 4 5 5 5 4 3 3 4 4 4 4 3 4 5 5 4 6 6 5 5 5 5 5 5 5 4 4 4 4 4 4 4 4 4 4 4 4 4 4
1 2 1 2 3 1 5 4 3 5 5 4 4 5 6 6 6 6 6 6 7 8 7 7 6 6 5 5 5 6 6 6 5 6 7 7 7 8 8 6 5 4 4 4 3 2 3 1 2 5 4 5 6 6 6 6 4 4 5 4 5 5 5 5 5 5 5 5 5 5 5 5 4 4 4 4 3 3 3 4 4 4 4 4 3 3 5
4 3 2 2 1 2 3 4 4 4 5 6 6 6 6 6 6 7 7 7 8 7 6 6 6 5 6 7 7 7 7 6 7 7 8 8 8 8 7 6 5 3 3 4 3 2 2 1 1 3 4 4 5 5 5 5 6 7 7 7 7 5 5 5 4 4 5 5 4 4 4 4 4 4 4 4 3 4 4 4 4 4 3 3 3 4 4
2 2 3 3 4 4 5 5 5 6 6 6 6 5 5 5 6 6 7 7 6 6 6 6 5 6 8 8 8 8 8 7 7 7 8 8 8 7 7 7 6 5 4 3 3 2 1 2 4 5 3 4 4 5 4 5 6 6 7 6 5 4 3 4 4 5 4 4 4 4 3 5 5 5 5 5 5 4 5 5 4 4 3 3 3 4 4
5 5 4 4 4 6 7 6 6 7 7 7 6 6 6 6 7 6 5 5 5 6 5 5 6 8 8 8 7 7 7 7 7 7 7 7 7 7 7 6 6 6 5 4 4 2 1 3 7 8 5 4 4 5 6 7 4 3 3 5 5 5 4 4 5 5 5 4 4 5 6 5 5 5 5 5 5 5 4 4 4 3 3 3 3 4 5
6 6 6 6 6 7 8 7 6 6 6 7 6 6 6 6 5 5 5 6 5 5 6 7 7 7 6 6 7 7 7 7 7 7 8 7 7 6 5 5 5 4 4 4 3 1 3 7 8 5 4 3 3 3 6 10 7 5 4 4 5 4 4 5 5 5 5 5 5 5 4 4 4 5 5 4 4 4 4 4 4 3 3 3 3 4 4
7 5 6 6 6 7 7 6 6 7 7 7 6 6 6 5 4 5 6 6 6 6 6 6 6 7 7 6 6 5 6 6 6 6 6 6 5 5 4 4 4 4 4 4 1 3 3 2 2 3 4 5 5 5 8 11 10 6 5 4 6 6 6 5 5 5 5 5 4 4 4 4 4 4 4 4 4 4 4 3 3 3 3 3 3 4 4
5 5 6 6 6 6 6 6 7 7 7 6 6 6 6 6 6 6 6 6 6 6 6 6 6 6 6 5 5 5 5 5 5 5 6 5 4 4 3 3 4 4 3 1 2 4 4 4 5 4 4 3 4 4 5 7 7 4 5 5 6 5 5 5 6 5 5 5 5 5 5 5 4 4 4 4 4 3 3 4 3 3 3 3 3 4 4
4 5 5 5 5 5 6 6 6 6 5 5 5 5 5 5 5 5 6 6 6 5 5 5 5 5 5 4 3 3 3 3 3 3 3 4 3 5 5 5 5 4 3 2 3 4 3 2 2 3 3 3 4 5 5 6 4 4 4 4 5 5 6 6 6 5 6 6 5 5 5 4 4 4 4 3 3 3 3 3 3 3 4 4 4 4 5
5 4 5 5 5 4 4 3 3 4 4 3 3 2 3 3 3 4 3 3 3 3 3 4 5 4 4 3 3 3 3 4 3 3 2 3 4 4 4 4 4 3 4 3 3 3 3 3 3 3 3 3 4 6 6 4 3 4 4 4 4 5 6 6 5 5 5 5 5 5 5 4 4 4 4 3 3 3 3 3 3 4 4 5 5 5 5
3 4 4 3 3 3 3 3 3 4 4 3 2 2 2 1 1 1 1 2 2 2 2 2 3 3 3 4 4 5 5 5 6 6 5 4 3 3 3 2 1 3 3 3 3 2 3 3 2 2 3 1 2 6 4 3 4 5 5 5 5 5 6 5 5 5 5 5 5 5 5 4 4 4 4 4 4 4 4 4 5 5 5 6 6 6 6
2 1 1 2 2 2 1 2 3 3 4 4 2 1 2 2 2 3 3 3 3 4 4 5 5 5 5 4 5 4 5 5 5 5 4 2 3 4 3 2 1 1 1 1 1 1 1 1 1 3 2 4 6 6 3 3 4 4 4 5 5 5 5 6 6 5 6 5 5 5 4 4 4 3 3 3 3 3 3 3 3 3 4 4 4 4 5
2 2 1 1 2 1 2 3 4 4 3 3 2 2 4 4 4 3 3 3 3 3 4 4 4 4 4 4 3 3 3 3 2 3 3 4 4 5 5 4 1 1 1 2 1 0 0 1 2 2 2 5 6 4 3 3 3 3 4 4 4 4 5 5 5 5 4 4 4 4 4 4 4 3 3 3 2 2 3 3 3 3 4 4 5 5 5
2 2 2 3 2 3 3 2 1 1 2 2 4 4 4 3 3 3 2 2 2 2 2 3 3 3 3 3 3 3 3 2 1 1 0 2 3 4 4 5 3 3 2 3 1 1 1 3 2 1 3 1 6 3 3 2 3 3 3 3 3 3 4 4 4 4 4 4 4 4 4 4 4 4 4 3 3 3 2 2 3 3 4 5 5 5 5
2 1 1 2 2 1 2 1 1 1 1 3 4 4 4 4 4 3 2 2 2 2 2 2 3 3 2 2 2 4 5 5 4 3 1 2 0 2 4 5 5 4 2 1 2 2 2 1 2 2 2 3 6 4 3 3 3 3 3 3 3 4 4 4 4 4 4 4 4 4 4 4 4 4 4 3 3 3 3 3 4 4 4 5 6 5 5
2 2 1 1 2 2 1 1 2 3 3 2 2 2 3 4 3 2 2 2 3 2 2 1 2 3 3 3 2 1 1 3 5 4 2 3 4 4 4 4 5 5 4 2 2 1 1 1 1 3 4 5 5 5 4 4 4 4 4 4 4 4 4 4 4 4 4 4 4 5 5 5 4 4 3 3 3 3 3 4 4 4 4 5 5 6 6
2 1 2 1 1 2 2 3 3 3 2 1 1 1 2 3 4 3 3 4 4 4 4 4 3 3 2 1 2 2 1 2 2 3 4 4 5 5 5 4 3 2 3 3 3 2 2 3 3 4 5 7 6 6 5 5 5 5 5 5 5 5 5 5 5 5 5 5 5 5 5 5 4 4 4 4 4 4 4 5 4 4 4 4 5 5 5
2 2 2 2 3 3 3 2 3 3 2 2 2 2 2 2 3 4 3 3 3 3 3 2 2 2 2 1 1 1 1 2 3 3 4 4 4 3 3 3 3 3 4 4 4 4 2 4 5 5 5 5 5 6 6 6 6 6 6 6 6 5 6 6 5 5 5 5 5 5 5 5 4 4 4 4 5 5 5 5 4 2 2 3 5 5 5
4 3 2 1 0 0 1 1 2 2 2 3 4 3 2 2 3 4 3 3 4 4 4 5 4 2 2 3 3 1 1 2 2 3 3 3 3 4 4 3 3 3 3 4 4 4 4 4 4 4 4 5 5 5 5 5 6 6 7 7 7 7 6 6 6 6 7 6 6 6 6 5 5 5 5 6 6 6 6 5 5 4 4 4 4 4 5
2 2 2 2 1 0 0 1 1 0 1 1 2 2 2 2 3 4 3 4 3 3 3 4 5 4 4 4 5 5 4 4 3 2 3 4 4 4 3 4 4 4 5 4 4 4 4 4 4 5 5 5 5 5 5 6 6 7 6 6 7 7 6 6 6 7 7 7 7 7 7 6 6 6 6 6 5 4 4 5 5 5 5 4 4 4 4
Wind_Direction
222 223 226 198 198 215 207 211 209 204 196 190 206 209 208 160 208 228 183 179 206 210 211 209 218 218 218 224 227 225 230 43 169 182 189 190 185 178 184 188 185 176 178 178 178 181 186 185 188 191 192 195 195 192 195 196 196 196 179 152 156 163 163 159 160 168 184 190 176 158 162 168 158 174 191 202 203 203 199 204 209 210 209 207 200 209 213
227 227 223 185 200 220 224 214 210 202 200 200 203 206 206 192 215 226 209 185 204 206 209 215 223 224 220 232 257 57 217 221 195 191 192 189 185 186 191 187 184 183 179 173 177 178 180 185 186 188 189 190 192 193 196 193 190 188 159 160 167 167 158 157 165 174 181 155 101 116 166 178 186 194 199 195 188 195 199 207 210 203 201 198 210 215 216
237 238 233 211 210 214 225 224 216 209 203 202 202 208 203 197 219 215 119 183 231 241 245 247 255 20 321 254 220 220 210 198 195 199 195 191 194 196 191 179 179 176 171 170 172 177 183 187 189 190 191 190 189 196 196 194 186 181 167 165 165 157 160 166 167 167 158 128 134 175 198 194 194 200 202 196 183 192 194 202 203 190 193 202 209 210 212
238 229 231 220 212 217 225 228 222 207 200 208 206 226 169 184 202 217 215 218 233 244 216 233 245 246 235 230 229 224 213 207 198 199 198 192 194 192 188 179 169 165 171 172 177 184 188 189 187 187 186 184 182 194 190 188 183 174 168 166 165 160 161 163 164 161 156 156 171 192 196 193 197 194 190 191 188 192 198 204 200 191 200 208 206 205 209
245 182 269 253 213 211 234 232 228 217 200 203 199 211 188 200 190 203 208 219 214 232 213 206 227 222 229 238 241 241 232 216 206 205 202 199 193 186 170 168 176 178 178 182 183 186 185 182 185 191 178 177 188 181 173 171 165 166 167 167 154 156 170 178 170 167 167 171 180 188 196 202 199 173 182 192 197 193 205 207 190 193 200 201 209 207 214
279 32 57 123 160 220 230 219 218 208 211 205 214 213 208 217 209 212 208 214 220 219 157 200 218 212 216 219 228 225 227 201 203 212 208 198 184 175 173 177 183 184 178 177 184 182 178 180 182 174 177 173 164 163 163 156 162 165 163 158 158 166 178 184 178 172 170 175 183 190 196 197 193 188 190 199 202 200 202 196 199 206 204 210 212 210 215
283 89 145 210 233 240 247 9 282 213 215 208 210 215 211 210 208 217 255 250 233 216 208 208 218 224 253 355 322 286 249 252 227 218 212 180 170 173 173 177 180 170 168 162 150 145 158 166 158 152 154 158 148 155 163 167 167 161 159 159 168 170 184 184 183 182 178 178 182 197 196 190 188 195 198 203 203 204 203 202 203 207 209 211 212 214 222
193 252 180 241 228 339 312 326 3 45 223 230 216 235 242 228 211 208 223 224 225 219 227 238 242 276 236 283 38 328 255 207 204 200 204 191 184 187 185 170 165 162 170 166 163 153 138 139 157 167 169 169 168 167 166 168 167 164 162 167 173 173 182 182 186 184 180 179 194 191 186 190 192 198 200 200 202 202 209 213 209 212 217 221 224 226 228
289 307 265 278 314 285 197 216 157 68 189 177 184 206 222 197 195 195 214 230 229 209 231 223 184 158 171 221 220 65 235 233 215 200 185 177 175 141 96 144 133 128 129 131 141 145 161 167 162 167 162 162 163 161 167 170 165 165 167 174 177 182 182 190 187 186 179 184 187 191 193 194 198 199 199 196 195 188 203 211 213 217 223 220 224 232 233
327 310 308 298 274 276 216 92 45 26 351 319 320 302 229 153 185 197 208 228 221 207 191 175 162 156 172 225 219 106 130 180 169 144 136 128 121 122 126 121 132 144 154 154 152 158 155 155 149 147 151 156 156 162 169 166 168 169 175 181 182 182 187 186 187 190 183 177 177 200 193 198 203 204 199 181 188 184 203 206 212 220 221 226 230 233 233
258 259 291 282 288 285 54 32 355 344 333 323 294 228 236 171 187 190 202 213 208 201 175 160 160 165 196 218 168 91 150 166 161 143 142 139 137 142 152 154 149 147 140 140 151 148 139 131 134 139 150 155 161 166 168 172 173 175 184 185 184 187 186 189 193 192 180 175 192 198 195 199 197 195 191 182 180 175 202 208 220 219 219 232 237 232 230
230 250 251 280 263 321 19 342 338 326 320 320 233 220 218 164 182 191 191 205 196 191 170 156 175 179 198 181 130 134 158 143 138 141 136 126 122 120 120 119 130 128 128 132 143 133 123 121 135 150 153 161 165 166 169 170 175 183 189 190 185 182 181 184 188 192 182 182 194 193 199 202 197 189 168 163 177 189 191 199 220 243 240 243 248 249 239
230 215 273 260 251 102 5 346 327 321 308 264 213 213 145 47 166 182 193 193 170 171 164 169 169 287 22 91 108 117 122 120 107 100 102 106 117 124 126 122 129 128 125 120 107 102 98 119 140 153 156 156 160 160 163 172 188 193 185 175 170 172 183 191 192 186 175 187 193 200 202 201 200 193 174 177 179 175 172 174 193 230 245 250 252 250 244
279 292 281 278 293 93 326 343 327 322 222 193 217 24 312 311 341 296 188 141 137 154 129 78 71 87 87 99 105 99 86 95 105 107 110 107 98 95 106 125 129 103 92 85 84 80 88 124 140 146 147 145 148 156 167 189 190 166 156 158 165 171 191 190 194 188 185 189 195 199 203 199 195 188 178 175 171 162 165 181 207 231 241 243 247 250 246
201 224 263 316 306 68 15 345 324 45 307 3 320 309 9 0 358 85 95 116 136 125 102 92 93 92 86 88 90 87 84 78 71 76 87 88 90 95 96 83 67 93 95 91 89 100 108 117 124 130 135 135 141 156 179 180 151 148 158 165 171 184 194 193 195 198 198 192 191 194 206 206 197 185 177 176 162 155 150 161 208 228 230 229 236 248 248
251 122 194 2 28 343 3 14 358 337 315 302 308 306 71 15 38 72 92 88 102 108 107 107 101 98 97 87 92 98 99 101 96 80 72 73 76 73 69 72 71 83 88 90 93 88 90 95 112 128 139 136 148 159 168 140 140 154 162 170 176 192 191 192 194 197 195 194 193 196 206 195 186 176 184 180 160 131 139 187 212 224 224 225 240 250 249
193 195 188 146 31 333 331 8 317 311 316 328 341 351 38 66 34 9 71 82 89 102 109 107 109 103 99 103 97 90 87 90 91 85 72 72 76 73 69 67 64 64 78 85 86 80 72 75 71 80 108 140 147 151 137 145 157 160 162 167 179 195 196 196 195 196 194 191 191 199 199 190 173 177 183 160 151 152 188 184 196 229 237 230 237 245 250
95 46 80 99 97 295 312 7 347 348 7 4 350 346 37 32 35 30 60 60 79 78 90 104 95 103 118 109 106 106 103 98 97 99 93 84 84 85 82 76 73 86 94 97 97 94 80 73 82 90 98 127 135 130 139 149 148 151 156 165 179 194 197 197 197 192 188 184 189 200 186 190 186 94 201 188 174 163 158 196 199 216 232 239 244 244 249
159 211 167 149 140 86 1 353 343 13 31 17 349 340 10 26 32 44 37 44 42 50 55 72 91 94 94 93 89 85 81 74 73 78 82 79 74 79 86 93 108 119 119 103 97 102 103 109 117 127 125 118 115 132 136 139 143 152 162 167 171 188 191 192 191 190 187 188 188 184 185 163 135 175 208 168 72 149 183 193 212 220 209 211 216 226 235
213 74 146 124 115 116 82 35 354 358 11 13 355 354 17 41 50 48 37 37 41 37 45 39 59 56 54 68 66 64 58 59 55 49 47 55 62 57 68 73 68 66 67 85 100 109 114 127 133 136 129 132 136 146 146 147 150 158 162 170 172 186 186 186 186 187 186 183 181 183 175 163 156 176 186 175 191 195 201 191 178 181 204 208 220 223 218
85 36 54 118 112 93 72 50 21 5 10 11 353 336 24 45 57 58 54 49 49 44 38 31 46 56 44 48 61 66 58 54 53 49 45 41 44 41 42 36 30 43 46 57 58 62 74 96 113 114 111 124 150 155 154 150 150 160 162 162 160 173 181 179 178 176 182 177 176 162 140 118 81 54 155 179 174 149 101 160 189 180 176 173 208 218 215
164 165 198 184 131 152 109 70 19 356 359 6 15 356 26 44 46 53 69 60 55 51 41 41 45 49 40 35 43 55 51 48 49 54 54 52 50 46 42 42 44 47 47 67 94 112 134 152 146 139 142 147 156 154 137 142 152 153 154 157 158 160 167 174 177 169 181 187 165 161 156 150 133 101 58 47 37 113 130 49 46 47 41 195 200 199 184
121 21 76 51 47 81 34 87 70 20 4 39 46 40 34 48 53 54 68 73 61 56 51 44 50 48 45 42 50 58 53 48 46 46 50 56 62 64 56 64 59 71 79 112 137 148 163 165 155 151 146 144 135 132 139 146 159 156 152 142 141 151 160 172 161 150 154 162 164 165 155 156 149 141 113 55 41 42 59 97 68 56 76 52 19 346 315
49 34 78 72 68 90 97 74 83 93 336 59 67 51 48 43 42 49 63 70 83 76 62 55 50 52 52 46 56 64 61 58 58 59 57 58 65 77 81 83 111 132 149 163 168 159 160 164 155 155 149 143 140 146 152 158 160 152 150 142 141 128 117 110 93 106 94 74 77 116 112 117 131 132 126 117 74 49 57 77 74 68 65 60 37 183 354
111 49 81 95 101 96 88 88 91 75 33 56 75 69 62 64 59 53 51 48 52 64 65 59 50 46 55 54 52 55 58 55 51 56 62 64 62 63 79 103 123 150 160 160 149 151 163 170 166 165 153 143 143 141 141 153 157 145 134 122 113 102 88 64 114 146 148 154 163 163 166 164 165 158 153 152 149 137 73 54 65 83 77 80 99 120 145
52 87 90 83 77 74 106 96 56 45 42 43 51 50 53 57 63 61 54 52 55 58 64 65 60 45 48 53 52 56 61 56 50 50 53 47 45 47 38 29 11 356 65 151 160 170 170 169 159 150 141 145 151 144 142 134 131 128 132 136 139 148 154 163 172 169 153 152 157 167 165 174 172 171 173 165 147 136 137 138 136 135 125 111 114 107 72
359 332 331 74 65 62 44 58 73 30 38 42 55 59 61 78 75 75 71 66 64 65 66 64 68 68 58 51 55 51 51 45 44 41 39 37 35 27 14 8 5 339 303 192 164 164 148 139 139 138 138 137 146 148 143 142 141 142 142 148 159 163 161 163 161 158 153 154 162 159 159 164 156 147 142 151 134 149 157 155 152 146 146 133 93 46 90
16 28 33 73 71 59 48 39 36 44 44 40 33 36 28 55 72 68 59 54 59 67 66 56 49 44 45 32 35 39 40 40 39 34 35 30 19 10 9 353 333 328 339 23 108 136 147 134 142 147 136 126 134 149 147 144 142 150 153 155 155 163 177 180 167 143 147 158 164 160 160 153 150 145 144 153 161 148 131 129 133 136 135 119 113 99 92
31 29 47 59 66 48 19 29 32 31 35 26 15 11 41 52 49 60 62 53 45 48 47 45 45 42 40 35 30 34 36 37 35 30 31 21 9 5 0 10 1 4 1 357 355 179 171 152 147 150 135 128 136 143 147 150 158 158 159 175 179 176 176 170 169 157 139 139 152 143 135 135 140 141 142 132 115 118 119 125 126 132 127 126 125 120 153
77 29 51 51 43 62 67 62 38 12 356 12 30 9 9 45 56 47 56 50 49 50 41 38 42 40 33 32 25 16 18 19 17 13 23 28 21 11 6 5 4 37 352 309 261 226 196 175 165 160 134 135 141 142 165 185 194 186 184 184 190 179 163 150 150 138 137 132 118 124 131 137 134 136 129 126 127 125 130 134 133 132 137 151 162 161 168
56 36 32 92 40 39 50 38 130 70 26 23 357 76 76 103 83 60 46 44 42 42 31 33 34 31 28 21 6 356 356 356 357 1 10 23 28 24 14 1 345 351 344 315 245 210 205 178 162 143 121 143 149 154 172 185 190 173 176 180 184 92 113 134 139 138 126 120 126 126 113 116 121 127 125 131 127 129 133 141 147 160 165 164 189 208 183
59 80 84 171 206 227 243 247 131 115 126 109 67 47 32 43 49 46 38 38 36 24 22 25 23 16 10 1 0 357 358 358 353 1 7 16 23 26 12 359 342 318 301 287 246 213 203 183 178 146 136 141 138 130 143 160 153 154 152 155 135 138 133 124 116 109 119 118 118 116 121 128 130 133 142 147 148 146 153 156 162 173 184 196 208 210 181
159 146 152 164 154 167 139 133 105 79 67 63 46 25 30 34 45 47 41 29 28 26 22 18 8 360 360 0 5 3 357 337 348 4 13 8 8 12 7 351 334 321 313 309 296 256 214 205 173 141 149 137 134 131 152 164 163 135 143 164 142 130 131 123 103 123 115 124 124 119 126 132 140 150 156 159 161 165 169 175 177 182 191 203 204 193 176
270 82 46 314 314 134 127 108 93 99 89 78 61 50 45 37 36 40 34 30 32 30 26 16 6 356 1 6 9 9 6 3 7 358 355 353 358 1 356 347 337 337 350 352 336 297 259 265 106 152 169 170 161 160 169 182 162 140 124 125 115 108 106 119 132 136 135 127 119 122 127 134 139 150 151 149 153 170 174 178 173 185 182 191 185 177 111
54 47 16 3 21 50 86 109 102 90 85 78 66 58 50 43 42 43 41 39 33 24 17 17 8 8 24 25 26 22 19 17 358 346 346 348 350 350 348 347 345 349 6 21 11 353 344 359 114 151 153 166 158 155 153 161 130 119 118 118 121 133 142 146 146 143 134 122 122 130 128 125 122 123 131 142 154 157 168 167 169 179 184 181 183 191 151
28 67 61 50 41 61 73 73 75 78 79 75 69 61 54 50 47 46 45 41 36 29 28 23 22 28 34 30 26 20 14 8 0 357 354 354 351 352 358 4 2 1 4 8 28 20 21 85 107 117 124 123 127 122 118 121 125 133 140 138 137 129 131 125 117 107 105 118 121 116 111 107 120 136 139 140 144 152 162 163 176 182 185 179 176 190 179
46 61 66 62 58 66 70 70 73 74 75 71 61 57 55 53 54 57 53 51 43 41 33 26 34 37 38 35 30 26 22 17 12 6 359 357 2 8 17 16 20 11 359 7 21 17 97 140 133 121 113 114 116 113 107 98 112 129 136 124 121 130 141 138 132 131 124 120 123 122 126 146 154 143 147 151 154 158 165 168 170 182 178 175 169 182 189
46 53 53 57 67 71 67 62 60 65 69 71 65 59 52 57 54 52 53 49 38 26 30 38 45 45 44 40 38 30 19 15 9 3 358 3 1 2 21 22 21 7 13 14 9 37 110 111 116 121 129 124 121 116 137 140 137 135 118 130 132 142 153 143 135 131 135 140 145 153 162 161 158 157 155 158 156 157 164 165 167 174 168 178 183 191 198
73 68 64 63 63 62 61 56 51 51 49 50 50 51 44 39 43 55 56 48 39 29 36 42 44 45 40 32 29 17 9 0 353 350 349 354 356 358 14 10 349 333 327 334 167 132 98 98 118 106 101 104 111 115 125 131 130 132 145 151 147 165 161 146 132 138 150 147 156 152 151 149 151 149 154 152 152 149 155 156 156 167 184 186 198 203 209
79 72 72 72 66 56 56 53 51 51 48 41 38 35 23 26 33 39 45 43 34 26 33 35 42 41 31 22 24 19 9 356 350 348 353 340 350 13 21 35 14 357 19 93 164 117 108 101 100 99 103 109 122 124 118 122 125 142 146 157 158 153 148 146 150 152 140 139 129 136 142 143 144 140 139 142 148 157 156 163 184 190 202 206 217 220 222
70 69 69 69 68 62 61 62 61 52 48 41 40 36 25 24 21 22 24 25 17 22 31 32 38 39 25 5 2 12 20 18 2 6 360 4 7 29 34 25 15 30 65 115 92 92 75 48 58 116 111 128 131 119 118 127 136 138 145 149 157 153 150 158 160 143 144 143 147 152 144 146 141 151 149 161 165 173 182 194 200 208 219 220 224 227 230
60 60 62 65 63 64 65 66 74 74 60 46 35 26 36 31 26 29 17 0 352 352 9 20 21 25 12 357 347 0 25 19 19 25 28 31 35 33 44 38 8 39 69 88 89 72 71 77 69 75 86 97 104 108 109 129 143 142 147 147 149 145 152 147 147 145 146 151 152 151 153 162 164 166 170 188 194 207 211 221 232 237 242 239 240 238 237
49 60 60 67 72 76 73 71 68 70 76 60 46 47 47 53 50 33 10 5 353 347 337 344 352 6 10 5 3 13 19 8 12 10 31 61 55 25 22 37 25 43 59 60 44 60 56 65 63 78 64 56 110 120 131 152 154 154 152 149 145 152 157 156 155 156 161 163 166 169 172 181 186 193 195 211 223 226 236 240 248 255 255 259 260 257 255
18 37 37 52 68 80 93 72 68 53 50 44 23 356 34 45 39 22 15 5 359 355 351 351 356 1 1 359 359 6 5 3 1 360 1 37 80 67 27 4 347 3 348 72 71 27 55 55 88 86 119 141 130 138 147 142 150 151 153 157 163 170 170 171 171 175 179 182 184 187 187 192 204 201 209 212 218 220 227 247 256 259 267 263 262 262 260
4 351 337 339 353 14 38 37 34 31 7 323 346 33 33 31 30 23 7 360 356 348 344 345 343 347 348 345 343 336 328 330 339 328 352 4 10 36 18 356 358 256 210 265 293 343 62 184 97 98 146 132 127 126 136 138 148 153 159 169 176 182 185 187 187 188 188 189 182 182 178 185 186 185 191 195 203 231 227 234 248 262 267 274 273 269 263
1 346 338 328 357 17 13 2 5 330 322 353 43 37 21 15 17 15 2 347 335 340 326 311 302 313 321 327 330 315 290 333 48 175 280 357 358 339 345 339 4 1 327 267 277 281 90 76 90 235 335 191 153 171 165 159 164 164 174 183 189 189 193 190 184 187 184 188 184 182 181 184 184 192 195 204 200 225 225 237 262 264 271 279 283 285 288
348 345 6 5 331 320 308 291 254 206 71 30 28 4 354 353 0 1 355 324 308 301 303 306 311 317 315 315 334 344 354 354 12 49 47 57 11 331 4 355 3 4 352 308 345 326 30 127 186 206 253 261 194 205 199 192 185 186 183 194 192 196 195 191 195 194 192 194 188 189 186 194 201 196 191 202 213 227 241 242 263 277 280 281 281 277 269
13 1 355 321 289 280 264 302 330 352 25 36 329 315 331 325 334 354 334 343 337 323 328 344 333 333 333 331 318 277 304 327 341 15 29 353 352 351 355 5 4 347 333 305 291 291 129 224 185 202 220 236 219 214 210 211 203 206 206 199 206 206 208 209 207 206 203 196 191 202 204 204 208 214 216 226 237 241 248 253 262 272 284 287 289 290 293
18 344 311 289 307 347 5 346 336 346 17 343 306 328 328 316 315 336 357 350 349 350 350 350 341 336 311 290 299 310 259 221 265 315 330 328 331 333 341 344 335 318 286 291 294 287 174 209 231 224 225 236 237 224 214 214 212 213 214 216 215 215 216 219 220 214 211 210 210 216 220 223 216 216 223 232 243 247 244 247 253 264 283 300 298 294 290
7 2 22 28 18 18 12 351 350 2 340 319 330 329 316 314 327 338 334 333 338 317 312 317 331 332 321 313 224 224 237 240 246 261 278 291 297 298 294 297 304 297 283 283 279 269 201 198 221 224 231 239 236 232 225 219 214 215 217 214 216 220 213 217 209 208 225 226 227 227 224 228 226 214 225 240 244 246 248 253 263 254 172 252 279 292 296
3 1 7 359 300 239 205 234 303 313 321 330 328 336 330 325 315 301 309 347 334 343 339 335 319 324 343 338 330 341 232 235 247 251 263 262 256 264 261 268 258 255 262 259 262 267 266 258 260 252 244 246 240 229 225 220 224 219 218 225 219 225 221 204 214 214 214 220 226 227 227 226 224 220 227 233 234 236 242 246 255 262 261 275 278 286 293
325 326 312 288 265 248 338 46 96 134 329 338 340 340 338 324 311 321 338 20 1 348 342 328 320 335 356 354 348 344 342 330 307 274 253 261 262 276 252 236 250 233 228 241 251 253 259 253 242 244 251 257 253 242 222 215 224 233 227 225 229 230 228 224 219 221 219 213 221 227 224 224 225 223 225 227 229 232 238 248 255 256 257 263 270 275 283